Weather History for Centralia, IL

Change the Weather History Date:

Tuesday, April 2, 2013

  Actual Average (KSLO) Record (KSLO)
Temperature  
Mean Temperature 40 °F -  
Max Temperature 48 °F 61 °F 86 °F (2012)
Min Temperature 32 °F 40 °F 21 °F (1961)
Degree Days  
Heating Degree Days 26    
Moisture  
Dew Point 25 °F    
Average Humidity 58    
Maximum Humidity 85    
Minimum Humidity 35    
Precipitation  
Precipitation 0.00 in - - ()
Sea Level Pressure  
Sea Level Pressure 30.29 in    
Wind  
Wind Speed 4 mph (NW)    
Max Wind Speed 10 mph    
Max Gust Speed -    
Visibility 10 miles    
Events      
Averages and records for this station are not official NWS values.
T = Trace of Precipitation, MM = Missing Value Source: NWS Daily Summary

Daily Weather History Graph

Daily Weather History Graph

Search for Another Location

Airport:

Trip Planner

Search our weather history database for the weather conditions in past years. The results will help you decide how hot, cold, wet, or windy it might be!

Date:

Astronomy

Apr. 02, 2013 Rise Set
Actual Time 6:39 AM CDT 7:20 PM CDT
Civil Twilight 6:12 AM CDT 7:47 PM CDT
Nautical Twilight 5:40 AM CDT 8:19 PM CDT
Astronomical Twilight 5:08 AM CDT 8:52 PM CDT
Moon 1:22 AM CDT (4/2) 11:33 AM CDT (4/2)
Length of Visible Light 13h 35m
Length of Day
12h 41m
Waning Gibbous, 55% of the Moon is Illuminated
Apr 2
Waning Gibbous
Apr 2
Last Quarter
Apr 10
New
Apr 18
First Quarter
Apr 25
Full

Hourly Weather History & Observations

Time (CDT) Temp. Windchill Dew Point Humidity Pressure Visibility Wind Dir Wind Speed Gust Speed Precip Events Conditions
12:15 AM 38.3 °F 34.8 °F 26.6 °F 63% 30.22 in 10.0 mi NNW 4.6 mph - N/A   Clear
12:35 AM 38.3 °F 33.2 °F 26.8 °F 63% 30.23 in 10.0 mi NNW 6.9 mph - N/A   Clear
12:55 AM 37.4 °F 31.4 °F 26.6 °F 65% 30.23 in 10.0 mi North 8.1 mph - N/A   Clear
1:15 AM 37.4 °F 32.8 °F 26.1 °F 64% 30.24 in 10.0 mi NNW 5.8 mph - N/A   Clear
1:35 AM 36.5 °F 31.0 °F 26.2 °F 66% 30.24 in 10.0 mi NNW 6.9 mph - N/A   Clear
1:55 AM 36.1 °F 32.3 °F 25.5 °F 65% 30.25 in 10.0 mi NNW 4.6 mph - N/A   Clear
2:15 AM 35.8 °F 31.9 °F 26.2 °F 68% 30.25 in 10.0 mi NNW 4.6 mph - N/A   Clear
2:35 AM 35.4 °F 31.5 °F 26.1 °F 69% 30.25 in 10.0 mi North 4.6 mph - N/A   Clear
2:55 AM 34.9 °F 30.8 °F 25.7 °F 69% 30.25 in 10.0 mi NNW 4.6 mph - N/A   Clear
3:15 AM 34.7 °F - 25.5 °F 69% 30.26 in 10.0 mi Calm Calm - N/A   Clear
3:35 AM 34.5 °F - 25.0 °F 68% 30.27 in 10.0 mi Calm Calm - N/A   Clear
3:55 AM 33.6 °F - 25.0 °F 71% 30.26 in 10.0 mi Calm Calm - N/A   Clear
4:15 AM 32.0 °F - 25.9 °F 78% 30.27 in 10.0 mi Calm Calm - N/A   Clear
4:35 AM 33.6 °F - 26.1 °F 74% 30.27 in 10.0 mi Calm Calm - N/A   Clear
4:55 AM 32.4 °F - 26.6 °F 79% 30.27 in 10.0 mi Calm Calm - N/A   Clear
5:15 AM 32.9 °F - 25.9 °F 75% 30.28 in 10.0 mi Calm Calm - N/A   Clear
5:35 AM 33.4 °F 30.4 °F 25.3 °F 72% 30.28 in 10.0 mi North 3.5 mph - N/A   Clear
5:55 AM 33.3 °F 30.2 °F 24.6 °F 71% 30.28 in 10.0 mi North 3.5 mph - N/A   Clear
6:15 AM 32.2 °F - 23.5 °F 70% 30.29 in 10.0 mi Calm Calm - N/A   Clear
6:35 AM 32.0 °F - 24.8 °F 75% 30.31 in 10.0 mi Calm Calm - N/A   Clear
6:55 AM 32.4 °F - 25.3 °F 75% 30.32 in 10.0 mi Calm Calm - N/A   Clear
7:15 AM 32.0 °F - 27.5 °F 83% 30.32 in 10.0 mi Calm Calm - N/A   Clear
7:35 AM 32.9 °F - 27.9 °F 82% 30.33 in 10.0 mi Calm Calm - N/A   Clear
7:55 AM 34.9 °F 32.0 °F 25.7 °F 69% 30.33 in 10.0 mi NW 3.5 mph - N/A   Clear
8:15 AM 35.2 °F 31.2 °F 23.9 °F 63% 30.34 in 10.0 mi North 4.6 mph - N/A   Clear
8:35 AM 35.8 °F 30.9 °F 23.2 °F 60% 30.35 in 10.0 mi NNW 5.8 mph - N/A   Clear
8:55 AM 36.5 °F 31.8 °F 23.4 °F 59% 30.34 in 10.0 mi NNE 5.8 mph - N/A   Clear
9:15 AM 37.0 °F 33.3 °F 21.4 °F 53% 30.34 in 10.0 mi NE 4.6 mph - N/A   Clear
9:35 AM 37.8 °F 32.5 °F 22.6 °F 54% 30.33 in 10.0 mi NNE 6.9 mph - N/A   Clear
9:55 AM 38.5 °F - 23.0 °F 54% 30.33 in 10.0 mi Calm Calm - N/A   Clear
10:15 AM 39.0 °F 36.8 °F 20.8 °F 48% 30.34 in 10.0 mi North 3.5 mph - N/A   Clear
10:35 AM 39.6 °F 35.4 °F 18.5 °F 43% 30.34 in 10.0 mi NNW 5.8 mph - N/A   Clear
10:55 AM 40.1 °F - 19.6 °F 44% 30.34 in 10.0 mi Calm Calm - N/A   Clear
11:15 AM 40.8 °F 37.8 °F 19.6 °F 43% 30.33 in 10.0 mi West 4.6 mph - N/A   Clear
11:35 AM 41.5 °F 37.8 °F 20.3 °F 43% 30.33 in 10.0 mi WNW 5.8 mph - N/A   Clear
11:55 AM 42.1 °F 40.2 °F 20.5 °F 42% 30.33 in 10.0 mi WNW 3.5 mph - N/A   Clear
12:15 PM 42.6 °F 39.0 °F 20.5 °F 41% 30.32 in 10.0 mi West 5.8 mph - N/A   Clear
12:35 PM 43.7 °F 40.3 °F 20.8 °F 40% 30.32 in 10.0 mi NNW 5.8 mph - N/A   Clear
12:55 PM 44.4 °F - 21.6 °F 40% 30.31 in 10.0 mi Calm Calm - N/A   Clear
1:15 PM 44.8 °F 40.4 °F 22.1 °F 41% 30.30 in 10.0 mi NW 8.1 mph - N/A   Clear
1:35 PM 45.3 °F 41.6 °F 21.7 °F 39% 30.30 in 10.0 mi North 6.9 mph - N/A   Clear
1:55 PM 45.9 °F 44.6 °F 21.6 °F 38% 30.30 in 10.0 mi North 3.5 mph - N/A   Clear
2:15 PM 45.9 °F 41.2 °F 21.6 °F 38% 30.29 in 10.0 mi WNW 9.2 mph - N/A   Clear
2:35 PM 46.8 °F - 21.7 °F 37% 30.29 in 10.0 mi West 4.6 mph - N/A   Clear
2:55 PM 46.9 °F - 22.3 °F 38% 30.29 in 10.0 mi NNW 5.8 mph - N/A   Clear
3:15 PM 46.8 °F - 22.1 °F 38% 30.28 in 10.0 mi Calm Calm - N/A   Clear
3:35 PM 46.9 °F - 23.7 °F 40% 30.28 in 10.0 mi West 6.9 mph - N/A   Clear
3:55 PM 46.9 °F - 23.5 °F 40% 30.28 in 10.0 mi NW 5.8 mph - N/A   Clear
4:15 PM 47.1 °F - 23.5 °F 40% 30.28 in 10.0 mi NW 9.2 mph - N/A   Clear
4:35 PM 47.1 °F - 20.7 °F 35% 30.28 in 10.0 mi Calm Calm - N/A   Clear
4:55 PM 47.7 °F - 23.0 °F 38% 30.28 in 10.0 mi NW 3.5 mph - N/A   Clear
5:15 PM 47.5 °F - 21.4 °F 36% 30.27 in 10.0 mi WNW 10.4 mph - N/A   Clear
5:35 PM 47.8 °F - 22.5 °F 37% 30.27 in 10.0 mi NW 6.9 mph - N/A   Clear
5:55 PM 47.7 °F - 23.2 °F 38% 30.27 in 10.0 mi NW 8.1 mph - N/A   Clear
6:15 PM 47.3 °F - 23.2 °F 39% 30.28 in 10.0 mi NW 6.9 mph - N/A   Clear
6:35 PM 47.1 °F - 23.7 °F 40% 30.27 in 10.0 mi NW 6.9 mph - N/A   Clear
6:55 PM 46.6 °F - 24.3 °F 42% 30.28 in 10.0 mi WNW 5.8 mph - N/A   Clear
7:15 PM 45.7 °F 44.4 °F 26.2 °F 47% 30.28 in 10.0 mi West 3.5 mph - N/A   Clear
7:35 PM 44.2 °F 41.8 °F 27.1 °F 51% 30.28 in 10.0 mi West 4.6 mph - N/A   Clear
7:55 PM 43.2 °F 41.5 °F 28.0 °F 55% 30.28 in 10.0 mi West 3.5 mph - N/A   Clear
8:15 PM 43.3 °F - 27.3 °F 53% 30.28 in 10.0 mi Calm Calm - N/A   Clear
8:35 PM 42.1 °F - 32.5 °F 69% 30.29 in 10.0 mi Calm Calm - N/A   Clear
8:55 PM 41.5 °F - 30.9 °F 66% 30.29 in 10.0 mi Calm Calm - N/A   Clear
9:15 PM 39.6 °F - 34.5 °F 82% 30.30 in 10.0 mi Calm Calm - N/A   Clear
9:35 PM 39.4 °F - 32.5 °F 76% 30.30 in 10.0 mi Calm Calm - N/A   Clear
9:55 PM 38.3 °F - 33.3 °F 82% 30.30 in 10.0 mi Calm Calm - N/A   Clear
10:15 PM 38.1 °F - 32.7 °F 81% 30.30 in 10.0 mi Calm Calm - N/A   Clear
10:35 PM 37.6 °F - 32.9 °F 83% 30.30 in 10.0 mi Calm Calm - N/A   Clear
10:55 PM 37.4 °F - 32.0 °F 81% 30.30 in 10.0 mi Calm Calm - N/A   Clear
11:35 PM 37.2 °F - 33.1 °F 85% 30.30 in 10.0 mi Calm Calm - N/A   Clear
11:55 PM 36.7 °F - 31.6 °F 82% 30.30 in 10.0 mi Calm Calm - N/A   Clear